TimeEDT,TemperatureF,Dew PointF,Humidity,Sea Level PressureIn,VisibilityMPH,Wind Direction,Wind SpeedMPH,Gust SpeedMPH,PrecipitationIn,Events,Conditions,WindDirDegrees,DateUTC
12:53 AM,50.0,45.0,83,29.72,10.0,Calm,Calm,-,N/A,,Mostly Cloudy,0,2013-05-12 04:53:00
1:53 AM,48.9,44.1,83,29.73,10.0,Calm,Calm,-,N/A,,Mostly Cloudy,0,2013-05-12 05:53:00
2:53 AM,50.0,39.0,66,29.72,10.0,WSW,8.1,-,N/A,,Clear,240,2013-05-12 06:53:00
3:53 AM,48.9,41.0,74,29.71,10.0,Calm,Calm,-,N/A,,Overcast,0,2013-05-12 07:53:00
4:53 AM,48.0,43.0,83,29.71,10.0,North,3.5,-,N/A,,Overcast,350,2013-05-12 08:53:00
5:53 AM,48.9,39.9,71,29.73,10.0,West,10.4,-,0.00,,Overcast,270,2013-05-12 09:53:00
6:53 AM,46.9,34.0,61,29.76,10.0,WNW,8.1,19.6,N/A,,Overcast,290,2013-05-12 10:53:00
7:53 AM,44.1,30.0,58,29.79,10.0,NW,17.3,20.7,N/A,,Mostly Cloudy,310,2013-05-12 11:53:00
8:53 AM,46.0,24.1,42,29.81,10.0,West,18.4,26.5,N/A,,Clear,280,2013-05-12 12:53:00
9:53 AM,48.0,27.0,44,29.81,10.0,WSW,15.0,20.7,N/A,,Partly Cloudy,250,2013-05-12 13:53:00
10:53 AM,50.0,26.1,39,29.79,10.0,West,16.1,25.3,N/A,,Scattered Clouds,270,2013-05-12 14:53:00
11:53 AM,50.0,24.1,36,29.79,10.0,West,23.0,29.9,N/A,,Partly Cloudy,260,2013-05-12 15:53:00
12:53 PM,54.0,25.0,33,29.78,10.0,West,15.0,29.9,N/A,,Scattered Clouds,270,2013-05-12 16:53:00
1:53 PM,51.1,25.0,36,29.79,10.0,West,15.0,26.5,N/A,,Mostly Cloudy,270,2013-05-12 17:53:00
2:28 PM,53.6,30.2,41,29.80,10.0,WSW,18.4,26.5,N/A,,Mostly Cloudy,250,2013-05-12 18:28:00
2:53 PM,52.0,28.0,40,29.80,10.0,SW,18.4,25.3,N/A,,Mostly Cloudy,230,2013-05-12 18:53:00
3:53 PM,50.0,33.1,52,29.81,10.0,WSW,15.0,26.5,0.00,,Partly Cloudy,250,2013-05-12 19:53:00
4:53 PM,48.0,30.0,50,29.82,10.0,WSW,12.7,-,0.00,Rain,Light Rain,250,2013-05-12 20:53:00
5:53 PM,52.0,25.0,35,29.82,10.0,West,17.3,26.5,0.02,,Scattered Clouds,280,2013-05-12 21:53:00
6:53 PM,48.9,23.0,36,29.84,10.0,WNW,11.5,25.3,N/A,,Scattered Clouds,290,2013-05-12 22:53:00
7:53 PM,46.9,23.0,39,29.87,10.0,WNW,15.0,24.2,N/A,,Partly Cloudy,290,2013-05-12 23:53:00
8:53 PM,46.0,23.0,40,29.89,10.0,West,13.8,21.9,N/A,,Mostly Cloudy,280,2013-05-13 00:53:00
9:53 PM,42.1,30.0,62,29.93,10.0,West,16.1,23.0,0.00,Rain,Light Rain,270,2013-05-13 01:53:00
10:53 PM,42.1,30.0,62,29.94,10.0,West,12.7,18.4,0.00,,Overcast,260,2013-05-13 02:53:00
11:53 PM,42.1,30.9,65,29.95,10.0,WSW,6.9,-,N/A,,Overcast,250,2013-05-13 03:53:00